YAOGAN-34 03 (54249 NORAD) Tracking and Keplerian Element Data

This shows tracking and keplerian element data for the satellite.

Feedback or suggestion? Click here.




ElementValue
Catalog54249
NameYAOGAN-34 03
Epoch Orbit809
Epoch Day14.15905007
Epoch Year2023
RAAN231.9782
Inclination63.4062
Eccentricity0.0009321
Argument of Perigee288.6191
Mean Anonmoly71.3837
Mean Motion13.45258501
Decay Rate-9E-07
L11 54249U 22154A 23014.15905007 -.00000090 00000+0 00000+0 0 9993
L22 54249 63.4062 231.9782 0009321 288.6191 71.3837 13.45258501 8099



Live tracking and technical data element details for YAOGAN-34 03 (NORAD 54249). YAOGAN-34 03 can be tracked NOW for your location showing map with azimuth and elevation plus other details from your city location.







IsCatalogInMostPopularTable: catalog: 54249, numindb: 15
Update: records affected: 1



GetName: 54249 YAOGAN-34 03

Hit Count: updated at: Fri, 27 Jan 2023 20:10:55 GMT